When you browse on this site, cookies collect data to enhance your experience and personalize the content and advertising you see.
Visit our Privacy Policy to learn more. By continuing to use the site, you agree to this use of cookies and data.
  • In Czech Republic
  • List of Countries
  • For 7 days
  • Water Temperature
  • Weather Map
  • Weather Widgets
  • user-avatar
    Login

    Hourly Weather La Gloria

    Today, 6 April, Monday

    Time Temperature Precipitation Wind Pressure Humidity
    00:00 +29°C° 0.6 mm 1 mps 754 mmHg 87%
    01:00 +29°C° 0 mm 1 mps 754 mmHg 88%
    02:00 +29°C° 0.3 mm 1 mps 754 mmHg 88%
    03:00 +28°C° 0.3 mm 1 mps 754 mmHg 88%
    04:00 +28°C° 0.3 mm 1 mps 754 mmHg 88%
    05:00 +28°C° 0 mm 1 mps 754 mmHg 88%
    06:00 +29°C° 0 mm 1 mps 755 mmHg 88%
    07:00 +29°C° 0 mm 1 mps 755 mmHg 88%
    08:00 +31°C° 0.1 mm 1 mps 755 mmHg 79%
    09:00 +33°C° 0.1 mm 1 mps 756 mmHg 69%
    10:00 +35°C° 0.1 mm 1 mps 756 mmHg 59%
    11:00 +36°C° 0.1 mm 1 mps 755 mmHg 55%
    12:00 +37°C° 0.1 mm 1 mps 754 mmHg 52%
    13:00 +39°C° 0.1 mm 1 mps 753 mmHg 49%
    14:00 +37°C° 0.5 mm 1 mps 752 mmHg 53%
    15:00 +36°C° 0.5 mm 1 mps 752 mmHg 58%
    16:00 +35°C° 0.5 mm 1 mps 752 mmHg 63%
    17:00 +33°C° 0.3 mm 1 mps 752 mmHg 68%
    18:00 +32°C° 0.3 mm 1 mps 753 mmHg 73%
    19:00 +31°C° 0.3 mm 1 mps 753 mmHg 78%
    20:00 +30°C° 0.9 mm 1 mps 754 mmHg 81%
    21:00 +30°C° 0.9 mm 1 mps 755 mmHg 83%
    22:00 +30°C° 0.9 mm 1 mps 755 mmHg 85%
    23:00 +29°C° 1 mm 1 mps 755 mmHg 87%

    Tomorrow, 7 April, Tuesday

    Time Temperature Precipitation Wind Pressure Humidity
    00:00 +29°C° 1 mm 1 mps 755 mmHg 89%
    01:00 +29°C° 1 mm 1 mps 755 mmHg 92%
    02:00 +28°C° 0.7 mm 1 mps 755 mmHg 92%
    03:00 +28°C° 0.7 mm 1 mps 755 mmHg 92%
    04:00 +28°C° 0.7 mm 1 mps 754 mmHg 92%
    05:00 +26°C° 0.3 mm 0 mps 755 mmHg 92%
    06:00 +26°C° 0.3 mm 0 mps 755 mmHg 91%
    07:00 +27°C° 0.3 mm 0 mps 756 mmHg 90%
    08:00 +29°C° 0.2 mm 0 mps 756 mmHg 81%
    09:00 +33°C° 0.2 mm 1 mps 756 mmHg 72%
    10:00 +35°C° 0.2 mm 1 mps 756 mmHg 63%
    11:00 +36°C° 0.6 mm 1 mps 755 mmHg 59%
    12:00 +36°C° 0.6 mm 1 mps 754 mmHg 56%
    13:00 +38°C° 0.6 mm 2 mps 753 mmHg 53%
    14:00 +36°C° 0.5 mm 1 mps 753 mmHg 57%
    15:00 +35°C° 0.5 mm 1 mps 752 mmHg 61%
    16:00 +34°C° 0.5 mm 1 mps 752 mmHg 65%
    17:00 +33°C° 0.3 mm 1 mps 752 mmHg 71%
    18:00 +32°C° 0.3 mm 1 mps 753 mmHg 76%
    19:00 +30°C° 0.3 mm 1 mps 753 mmHg 82%
    20:00 +30°C° 0.3 mm 1 mps 754 mmHg 83%
    21:00 +30°C° 0.3 mm 1 mps 754 mmHg 84%
    22:00 +29°C° 0.3 mm 1 mps 755 mmHg 85%
    23:00 +29°C° 0 mm 1 mps 755 mmHg 85%

    Day after tomorrow, 8 April, Wednesday

    Time Temperature Precipitation Wind Pressure Humidity
    00:00 +29°C° 0 mm 1 mps 754 mmHg 86%
    01:00 +29°C° 0 mm 1 mps 753 mmHg 87%
    02:00 +29°C° 0.2 mm 1 mps 753 mmHg 87%
    03:00 +26°C° 0.2 mm 0 mps 753 mmHg 87%
    04:00 +26°C° 0.2 mm 0 mps 753 mmHg 87%
    05:00 +29°C° 0.1 mm 1 mps 754 mmHg 87%
    06:00 +29°C° 0.1 mm 1 mps 754 mmHg 86%
    07:00 +29°C° 0.1 mm 1 mps 755 mmHg 86%
    08:00 +31°C° 0 mm 1 mps 755 mmHg 77%
    09:00 +33°C° 0 mm 1 mps 755 mmHg 68%
    10:00 +35°C° 0 mm 1 mps 755 mmHg 59%
    11:00 +37°C° 0 mm 1 mps 754 mmHg 54%
    12:00 +39°C° 0 mm 1 mps 753 mmHg 49%
    13:00 +40°C° 0 mm 1 mps 752 mmHg 45%
    14:00 +39°C° 0.1 mm 1 mps 752 mmHg 47%
    15:00 +39°C° 0.1 mm 1 mps 751 mmHg 49%
    16:00 +38°C° 0.1 mm 2 mps 751 mmHg 52%
    17:00 +35°C° 0.2 mm 1 mps 751 mmHg 59%
    18:00 +34°C° 0.2 mm 1 mps 752 mmHg 66%
    19:00 +32°C° 0.2 mm 1 mps 752 mmHg 72%
    20:00 +31°C° 0.3 mm 1 mps 753 mmHg 76%
    21:00 +30°C° 0.3 mm 1 mps 753 mmHg 80%
    22:00 +29°C° 0.3 mm 1 mps 754 mmHg 83%
    23:00 +29°C° 0.5 mm 1 mps 754 mmHg 85%

    9 April, Thursday

    Time Temperature Precipitation Wind Pressure Humidity
    00:00 +29°C° 0.5 mm 1 mps 753 mmHg 87%
    01:00 +29°C° 0.5 mm 1 mps 753 mmHg 89%
    02:00 +29°C° 0.4 mm 1 mps 753 mmHg 89%
    03:00 +28°C° 0.4 mm 1 mps 753 mmHg 90%
    04:00 +28°C° 0.4 mm 1 mps 753 mmHg 90%
    05:00 +29°C° 0.2 mm 1 mps 753 mmHg 89%
    06:00 +29°C° 0.2 mm 1 mps 754 mmHg 88%
    07:00 +29°C° 0.2 mm 1 mps 754 mmHg 87%
    08:00 +31°C° 0.1 mm 1 mps 754 mmHg 78%
    09:00 +33°C° 0.1 mm 1 mps 754 mmHg 69%
    10:00 +35°C° 0.1 mm 1 mps 754 mmHg 60%
    11:00 +36°C° 0 mm 1 mps 753 mmHg 56%
    12:00 +37°C° 0 mm 1 mps 752 mmHg 51%
    13:00 +39°C° 0 mm 1 mps 752 mmHg 46%
    14:00 +39°C° 0.1 mm 1 mps 751 mmHg 48%
    15:00 +37°C° 0.1 mm 1 mps 751 mmHg 50%
    16:00 +38°C° 0.1 mm 2 mps 751 mmHg 52%
    17:00 +35°C° 0.2 mm 1 mps 751 mmHg 60%
    18:00 +33°C° 0.2 mm 1 mps 752 mmHg 68%
    19:00 +31°C° 0.2 mm 1 mps 752 mmHg 76%
    20:00 +31°C° 0.2 mm 1 mps 753 mmHg 79%
    21:00 +30°C° 0.2 mm 1 mps 754 mmHg 81%
    22:00 +29°C° 0.2 mm 1 mps 754 mmHg 84%
    23:00 +29°C° 0.7 mm 1 mps 754 mmHg 86%

    10 April, Friday

    Time Temperature Precipitation Wind Pressure Humidity
    00:00 +29°C° 0.7 mm 1 mps 754 mmHg 88%
    01:00 +26°C° 0.7 mm 0 mps 754 mmHg 90%
    02:00 +26°C° 0.7 mm 0 mps 754 mmHg 90%
    03:00 +26°C° 0.7 mm 0 mps 754 mmHg 90%
    04:00 +28°C° 0.7 mm 1 mps 754 mmHg 91%
    05:00 +26°C° 0.2 mm 0 mps 754 mmHg 89%
    06:00 +27°C° 0.2 mm 0 mps 755 mmHg 87%
    07:00 +27°C° 0.2 mm 0 mps 755 mmHg 85%
    08:00 +29°C° 0.6 mm 0 mps 755 mmHg 78%
    09:00 +32°C° 0.6 mm 1 mps 755 mmHg 70%
    10:00 +34°C° 0.6 mm 1 mps 755 mmHg 62%
    11:00 +35°C° 0.3 mm 1 mps 755 mmHg 58%
    12:00 +36°C° 0.3 mm 1 mps 754 mmHg 54%
    13:00 +38°C° 0.3 mm 2 mps 753 mmHg 50%
    14:00 +37°C° 0 mm 2 mps 753 mmHg 51%
    15:00 +37°C° 0 mm 2 mps 752 mmHg 52%
    16:00 +37°C° 0 mm 2 mps 752 mmHg 52%
    17:00 +35°C° 0.1 mm 2 mps 752 mmHg 61%
    18:00 +32°C° 0.1 mm 1 mps 753 mmHg 69%
    19:00 +30°C° 0.1 mm 1 mps 753 mmHg 78%
    20:00 +30°C° 0.1 mm 1 mps 754 mmHg 79%
    21:00 +29°C° 0.1 mm 1 mps 755 mmHg 80%
    22:00 +29°C° 0.1 mm 1 mps 755 mmHg 82%
    23:00 +29°C° 0.3 mm 1 mps 755 mmHg 85%

    11 April, Saturday

    Time Temperature Precipitation Wind Pressure Humidity
    00:00 +28°C° 0.3 mm 1 mps 755 mmHg 88%
    01:00 +28°C° 0.3 mm 1 mps 755 mmHg 91%
    02:00 +27°C° 0 mm 1 mps 755 mmHg 91%
    03:00 +27°C° 0 mm 1 mps 755 mmHg 92%
    04:00 +27°C° 0 mm 1 mps 755 mmHg 93%
    05:00 +28°C° 0 mm 1 mps 755 mmHg 91%
    06:00 +26°C° 0 mm 0 mps 756 mmHg 89%
    07:00 +26°C° 0 mm 0 mps 756 mmHg 86%
    08:00 +28°C° 0.3 mm 0 mps 756 mmHg 78%
    09:00 +32°C° 0.3 mm 1 mps 756 mmHg 69%
    10:00 +34°C° 0.3 mm 1 mps 756 mmHg 61%
    11:00 +35°C° 0.3 mm 1 mps 755 mmHg 58%
    12:00 +36°C° 0.3 mm 1 mps 755 mmHg 55%
    13:00 +37°C° 0.3 mm 1 mps 754 mmHg 52%
    14:00 +36°C° 0.3 mm 1 mps 754 mmHg 53%
    15:00 +36°C° 0.3 mm 1 mps 753 mmHg 54%
    16:00 +36°C° 0.3 mm 1 mps 752 mmHg 55%
    17:00 +34°C° 0.4 mm 1 mps 753 mmHg 62%
    18:00 +32°C° 0.4 mm 1 mps 754 mmHg 69%
    19:00 +30°C° 0.4 mm 1 mps 754 mmHg 76%
    20:00 +30°C° 0.3 mm 1 mps 755 mmHg 79%
    21:00 +29°C° 0.3 mm 1 mps 755 mmHg 82%
    22:00 +28°C° 0.3 mm 1 mps 756 mmHg 85%
    23:00 +28°C° 0.3 mm 1 mps 755 mmHg 87%
    Show more